EW8563 Weather Reports


time (UTC)temp
C
wind
direction
speed
KPH
gust
KPH
rain 1hr
cm
rain 24hr
cm
rain mn
cm
humidity
%
barometer
mb
20260503175244 15 285 6.4 14.5 0.00 0.00 0.00 70 1011.1
20260503174743 15 247 6.4 14.5 0.00 0.00 0.00 69 1011.2
20260503174243 15 272 8.0 14.5 0.00 0.00 0.00 68 1011.2
20260503173743 15 238 4.8 14.5 0.00 0.00 0.00 68 1011.1
20260503173243 15 292 8.0 11.3 0.00 0.00 0.00 68 1011.0
20260503172742 15 189 4.8 11.3 0.00 0.00 0.00 69 1011.1
20260503172724 15 271 3.2 11.3 0.00 0.00 0.00 68 1011.1
20260503172221 15 262 8.0 11.3 0.00 0.00 0.00 67 1011.0
20260503171242 15 278 3.2 11.3 0.00 0.00 0.00 67 1011.0
20260503171008 15 228 3.2 11.3 0.00 0.00 0.00 68 1010.9
20260503170243 15 197 3.2 8.0 0.00 0.00 0.00 70 1011.0
20260503150959 11 106 4.8 6.4 0.00 0.00 0.00 87 1010.7
20260503150707 11 86 0.0 6.4 0.00 0.00 0.00 87 1010.7
20260503150703 11 82 3.2 4.8 0.00 0.00 0.00 87 1010.7
20260503140236 11 290 0.0 0.0 0.00 0.00 0.00 86 1010.0
20260503131232 11 288 0.0 8.0 0.00 0.00 0.00 85 1009.4
20260503130733 11 288 4.8 8.0 0.00 0.00 0.00 85 1009.3
20260503130233 11 312 3.2 4.8 0.00 0.00 0.00 85 1009.3
20260503110703 11 314 4.8 6.4 0.00 0.00 0.00 84 1009.3
20260503110205 11 319 1.6 8.0 0.00 0.00 0.00 84 1009.3
20260503090428 12 340 6.4 9.7 0.00 0.00 0.00 85 1009.4
20260503081205 12 324 6.4 11.3 0.00 0.00 0.00 84 1009.9
20260503080704 12 337 6.4 9.7 0.00 0.00 0.00 84 1009.9
20260503080205 12 350 4.8 14.5 0.00 0.00 0.00 84 1010.0
20260503072703 12 326 3.2 17.7 0.00 0.00 0.00 84 1010.1
20260503072649 12 319 3.2 17.7 0.00 0.00 0.00 84 1010.1
20260503071705 12 299 9.7 16.1 0.00 0.00 0.00 84 1010.1
20260503071204 12 350 8.0 17.7 0.00 0.00 0.00 84 1010.1
20260503070704 12 327 11.3 17.7 0.00 0.00 0.00 84 1010.1
20260503070427 12 324 11.3 19.3 0.00 0.00 0.00 84 1010.0
20260503054927 12 305 9.7 19.3 0.00 0.00 0.00 82 1010.4
20260503054204 12 326 11.3 19.3 0.00 0.00 0.00 82 1010.5
20260503053928 12 326 6.4 14.5 0.00 0.00 0.00 82 1010.5
20260503053204 12 310 6.4 14.5 0.00 0.00 0.00 82 1010.6
20260503052707 12 302 8.0 17.7 0.00 0.00 0.00 82 1010.5
20260503052202 12 345 11.3 17.7 0.00 0.00 0.00 82 1010.6
20260503051931 12 313 6.4 16.1 0.00 0.00 0.00 82 1010.6
20260503051651 12 290 8.0 17.7 0.00 0.00 0.00 82 1010.7
20260503050924 12 326 11.3 19.3 0.00 0.00 0.00 82 1010.7
20260503050202 12 306 9.7 19.3 0.00 0.00 0.00 82 1010.6
20260503045703 12 313 6.4 17.7 0.00 0.00 0.00 82 1010.6
20260503045202 12 323 8.0 19.3 0.00 0.00 0.00 82 1010.5
20260503045154 12 329 8.0 19.3 0.00 0.00 0.00 82 1010.5
20260503044203 12 313 11.3 19.3 0.00 0.00 0.00 82 1010.5
20260503043703 12 302 11.3 19.3 0.00 0.00 0.00 82 1010.4
20260503043203 12 319 8.0 19.3 0.00 0.00 0.00 82 1010.4
20260503042924 12 307 9.7 19.3 0.00 0.00 0.00 82 1010.3
20260503042202 12 286 9.7 19.3 0.00 0.00 0.00 81 1010.3
20260503041703 12 296 12.9 19.3 0.00 0.00 0.00 81 1010.2
20260503041203 12 306 6.4 17.7 0.00 0.00 0.00 81 1010.1
20260503040702 12 313 6.4 19.3 0.00 0.00 0.00 81 1010.1
20260503040203 12 345 14.5 19.3 0.00 0.00 0.00 81 1010.1
20260503035924 12 344 11.3 20.9 0.00 0.00 0.00 81 1010.0
20260503035203 12 340 14.5 20.9 0.00 0.00 0.00 81 1010.0
20260503034704 12 310 11.3 20.9 0.00 0.00 0.00 81 1010.0
20260503034204 12 307 8.0 19.3 0.00 0.00 0.00 81 1009.9
20260503033703 12 338 8.0 19.3 0.00 0.00 0.00 80 1009.8
20260503033202 12 289 11.3 19.3 0.00 0.00 0.00 80 1009.7
20260503032703 12 333 8.0 22.5 0.00 0.00 0.00 80 1009.7
20260503032429 12 336 14.5 22.5 0.00 0.00 0.00 80 1009.8
20260503031704 12 314 12.9 22.5 0.00 0.00 0.00 80 1009.7
20260503031427 12 319 11.3 19.3 0.00 0.00 0.00 79 1009.5
20260503030703 12 319 8.0 20.9 0.00 0.00 0.00 79 1009.5
20260503030202 13 334 12.9 20.9 0.00 0.00 0.00 79 1009.5
20260503025702 13 298 9.7 17.7 0.00 0.00 0.00 78 1009.5
20260503025204 13 303 8.0 17.7 0.00 0.00 0.00 78 1009.4
20260503024915 13 326 12.9 25.7 0.00 0.00 0.00 77 1009.4
20260503024858 13 312 11.3 25.7 0.00 0.00 0.00 78 1009.4
20260503023702 13 320 11.3 24.1 0.00 0.00 0.00 77 1009.3
20260503023202 13 312 9.7 24.1 0.00 0.00 0.00 77 1009.2
20260503022704 13 333 14.5 24.1 0.00 0.00 0.00 76 1009.1
20260503022202 13 330 11.3 20.9 0.00 0.00 0.00 76 1009.2
20260503021703 14 331 11.3 22.5 0.00 0.00 0.00 76 1009.1
20260503021651 14 334 14.5 22.5 0.00 0.00 0.00 75 1009.2
20260503020703 14 327 9.7 25.7 0.00 0.00 0.00 75 1009.2
20260503020203 14 329 12.9 25.7 0.00 0.00 0.00 74 1009.2
20260503015703 14 305 14.5 25.7 0.00 0.00 0.00 74 1009.2
20260503015204 14 320 17.7 25.7 0.00 0.00 0.00 74 1009.3
20260503014703 15 330 14.5 25.7 0.00 0.00 0.00 74 1009.3
20260503014200 15 305 9.7 22.5 0.00 0.00 0.00 74 1009.3
20260503013659 15 298 11.3 22.5 0.00 0.00 0.00 73 1009.3
20260503013157 15 314 12.9 24.1 0.00 0.00 0.00 73 1009.3
20260503012655 15 323 14.5 25.7 0.00 0.00 0.00 73 1009.3
20260503012149 15 307 16.1 25.7 0.00 0.00 0.00 73 1009.3
20260503011650 15 329 16.1 24.1 0.00 0.00 0.00 72 1009.4
20260503011149 15 290 16.1 25.7 0.00 0.00 0.00 72 1009.3
20260503010906 15 307 14.5 25.7 0.00 0.00 0.00 72 1009.3
20260503010145 16 337 12.9 22.5 0.00 0.00 0.00 72 1009.3
20260503010135 16 314 8.0 24.1 0.00 0.00 0.00 72 1009.3
20260503005142 16 336 12.9 24.1 0.00 0.00 0.00 71 1009.2
20260503004640 16 310 14.5 24.1 0.00 0.00 0.00 70 1009.3
20260503004135 16 338 16.1 24.1 0.00 0.00 0.00 70 1009.3
20260503003857 16 309 12.9 24.1 0.00 0.00 0.00 70 1009.4
20260503003134 16 285 14.5 22.5 0.00 0.00 0.00 69 1009.3
20260503002632 16 306 9.7 20.9 0.00 0.00 0.00 69 1009.3
20260503002132 16 312 11.3 20.9 0.00 0.00 0.00 69 1009.4
20260503001634 16 298 12.9 27.4 0.00 0.00 0.00 69 1009.3
20260503001358 17 302 14.5 27.4 0.00 0.00 0.00 68 1009.4
20260503000631 17 307 14.5 25.7 0.00 0.00 0.00 68 1009.4
20260503000353 17 307 11.3 27.4 0.00 0.00 0.00 67 1009.4
20260502235633 17 323 11.3 27.4 0.00 0.00 0.00 67 1009.3
20260502235134 17 330 12.9 32.2 0.00 0.00 0.00 67 1009.3
20260502234633 17 290 16.1 32.2 0.00 0.00 0.00 66 1009.3
20260502234133 18 289 17.7 29.0 0.00 0.00 0.00 65 1009.3
20260502233632 18 298 16.1 29.0 0.00 0.00 0.00 65 1009.4
20260502233133 18 290 12.9 25.7 0.00 0.00 0.00 64 1009.3
20260502232632 19 283 16.1 25.7 0.00 0.00 0.00 64 1009.3
20260502232131 18 296 16.1 25.7 0.00 0.00 0.00 65 1009.4
20260502231632 18 278 17.7 25.7 0.00 0.00 0.00 65 1009.5
20260502231132 18 309 11.3 29.0 0.00 0.00 0.00 65 1009.6
20260502230631 18 285 14.5 29.0 0.00 0.00 0.00 65 1009.6
20260502230131 18 300 11.3 25.7 0.00 0.00 0.00 64 1009.7
20260502225632 18 344 14.5 29.0 0.00 0.00 0.00 65 1009.7
20260502225133 18 319 9.7 29.0 0.00 0.00 0.00 65 1009.8
20260502224631 19 282 22.5 27.4 0.00 0.00 0.00 63 1009.8
20260502224131 19 262 9.7 20.9 0.00 0.00 0.00 65 1009.9
20260502223632 19 310 14.5 22.5 0.00 0.00 0.00 64 1009.9
20260502223131 18 303 11.3 27.4 0.00 0.00 0.00 65 1010.0
20260502222632 18 306 17.7 27.4 0.00 0.00 0.00 65 1010.1
20260502222131 18 299 17.7 25.7 0.00 0.00 0.00 64 1010.2
20260502221630 19 282 14.5 24.1 0.00 0.00 0.00 63 1010.3
20260502221125 19 296 12.9 25.7 0.00 0.00 0.00 65 1010.3
20260502220851 19 340 14.5 27.4 0.00 0.00 0.00 64 1010.4
20260502220125 19 319 14.5 27.4 0.00 0.00 0.00 65 1010.5
20260502215624 19 313 12.9 24.1 0.00 0.00 0.00 64 1010.5
20260502215121 19 327 14.5 24.1 0.00 0.00 0.00 64 1010.5
20260502214620 19 344 12.9 25.7 0.00 0.00 0.00 65 1010.5
20260502214117 19 271 16.1 25.7 0.00 0.00 0.00 65 1010.4
20260502213616 20 268 16.1 22.5 0.00 0.00 0.00 63 1010.5
20260502213557 20 329 4.8 14.5 0.00 0.00 0.00 63 1010.5
20260502212831 20 281 6.4 16.1 0.00 0.00 0.00 63 1010.5
20260502212559 20 264 8.0 16.1 0.00 0.00 0.00 64 1010.6
20260502211614 19 250 8.0 14.5 0.00 0.00 0.00 64 1010.7
20260502211114 19 312 3.2 14.5 0.00 0.00 0.00 64 1010.7
20260502210615 19 288 4.8 14.5 0.00 0.00 0.00 65 1010.7
20260502210113 18 166 6.4 14.5 0.00 0.00 0.00 64 1010.9
20260502205613 18 281 8.0 14.5 0.00 0.00 0.00 68 1011.0
20260502205112 18 247 8.0 14.5 0.00 0.00 0.00 65 1011.1
20260502204612 18 314 4.8 16.1 0.00 0.00 0.00 67 1011.1
20260502204112 18 195 4.8 16.1 0.00 0.00 0.00 67 1011.2
20260502203839 18 353 6.4 11.3 0.00 0.00 0.00 68 1011.2
20260502203114 18 238 4.8 11.3 0.00 0.00 0.00 68 1011.3
20260502202613 17 314 6.4 16.1 0.00 0.00 0.00 71 1011.3
20260502202114 17 317 9.7 16.1 0.00 0.00 0.00 70 1011.5
20260502201612 17 295 1.6 9.7 0.00 0.00 0.00 72 1011.6
20260502201112 17 275 6.4 11.3 0.00 0.00 0.00 73 1011.6
20260502200612 17 188 8.0 16.1 0.00 0.00 0.00 72 1011.6
20260502200111 17 230 9.7 16.1 0.00 0.00 0.00 73 1011.7
20260502195612 17 303 6.4 9.7 0.00 0.00 0.00 75 1011.8
20260502195112 17 265 6.4 9.7 0.00 0.00 0.00 75 1011.9
20260502194611 16 8 1.6 8.0 0.00 0.00 0.00 76 1011.8
20260502194338 16 357 3.2 8.0 0.00 0.00 0.00 78 1011.9
20260502193611 15 298 1.6 6.4 0.00 0.00 0.00 80 1011.9
20260502193112 15 276 3.2 6.4 0.00 0.00 0.00 79 1012.1
20260502192610 15 274 3.2 4.8 0.00 0.00 0.00 81 1012.0
20260502192112 15 283 1.6 8.0 0.00 0.00 0.00 81 1012.2
20260502191611 15 274 4.8 8.0 0.00 0.00 0.00 82 1012.1
20260502191111 15 224 3.2 6.4 0.00 0.00 0.00 83 1012.2
20260502190612 15 299 3.2 6.4 0.00 0.00 0.00 84 1012.1
20260502190111 14 185 0.0 6.4 0.00 0.00 0.00 85 1012.1
20260502185839 14 182 0.0 6.4 0.00 0.00 0.00 85 1012.2
20260502185111 14 179 3.2 6.4 0.00 0.00 0.00 85 1012.3
20260502184611 13 189 3.2 6.4 0.00 0.00 0.00 85 1012.2
20260502184333 13 214 3.2 9.7 0.00 0.00 0.00 85 1012.2
20260502183612 13 204 1.6 9.7 0.00 0.00 0.00 85 1012.3
20260502183111 13 144 6.4 8.0 0.00 0.00 0.00 85 1012.2
20260502182831 13 217 3.2 8.0 0.00 0.00 0.00 86 1012.2
20260502182112 13 166 3.2 8.0 0.00 0.00 0.00 86 1012.2
20260502181611 13 180 4.8 8.0 0.00 0.00 0.00 86 1012.3
20260502181110 13 197 3.2 6.4 0.00 0.00 0.00 86 1012.2
20260502180609 13 214 3.2 8.0 0.00 0.00 0.00 86 1012.3
20260502180335 13 197 1.6 11.3 0.00 0.00 0.00 87 1012.3